S-NET A (43188 NORAD) Tracking and Keplerian Element Data

This shows tracking and keplerian element data for the satellite.

Feedback or suggestion? Click here.




ElementValue
Catalog43188
NameS-NET A
Epoch Orbit32506
Epoch Day13.18725915
Epoch Year2024
RAAN277.9332
Inclination97.6078
Eccentricity0.0012385
Argument of Perigee158.3167
Mean Anonmoly201.8585
Mean Motion15.0252044
Decay Rate6.076E-05
L11 43188U 18014J 24013.18725915 .00006076 00000+0 46098-3 0 9994
L22 43188 97.6078 277.9332 0012385 158.3167 201.8585 15.02520440325064



Live tracking and technical data element details for S-NET A (NORAD 43188). S-NET A can be tracked NOW for your location showing map with azimuth and elevation plus other details from your city location.







IsCatalogInMostPopularTable: catalog: 43188, numindb: 729
Update: records affected: 1



GetName: 43188 S-NET A

Hit Count: updated at: Fri, 19 Apr 2024 11:44:34 GMT